TimeEDT,TemperatureF,Dew PointF,Humidity,Sea Level PressureIn,VisibilityMPH,Wind Direction,Wind SpeedMPH,Gust SpeedMPH,PrecipitationIn,Events,Conditions,WindDirDegrees,DateUTC
12:53 AM,64.0,57.0,78,30.18,10.0,Calm,Calm,-,N/A,,Mostly Cloudy,0,2013-07-30 04:53:00
1:53 AM,63.0,57.0,81,30.18,10.0,SSE,3.5,-,N/A,,Partly Cloudy,160,2013-07-30 05:53:00
2:53 AM,62.1,57.0,84,30.17,10.0,South,4.6,-,N/A,,Scattered Clouds,170,2013-07-30 06:53:00
3:53 AM,61.0,57.0,87,30.18,10.0,South,3.5,-,N/A,,Clear,170,2013-07-30 07:53:00
4:53 AM,60.1,57.0,90,30.19,10.0,SSE,4.6,-,N/A,,Scattered Clouds,160,2013-07-30 08:53:00
5:53 AM,60.1,57.0,90,30.20,9.0,SSE,4.6,-,N/A,,Mostly Cloudy,160,2013-07-30 09:53:00
6:53 AM,60.1,55.9,86,30.21,9.0,SSE,5.8,-,N/A,,Clear,160,2013-07-30 10:53:00
7:53 AM,63.0,57.0,81,30.22,7.0,South,5.8,-,N/A,,Clear,170,2013-07-30 11:53:00
8:53 AM,68.0,59.0,73,30.23,9.0,South,3.5,-,N/A,,Clear,180,2013-07-30 12:53:00
9:53 AM,69.1,57.9,68,30.23,10.0,WNW,3.5,-,N/A,,Clear,290,2013-07-30 13:53:00
10:53 AM,72.0,59.0,64,30.22,10.0,WNW,4.6,-,N/A,,Scattered Clouds,300,2013-07-30 14:53:00
11:53 AM,73.0,57.9,59,30.22,10.0,NNW,5.8,-,N/A,,Clear,330,2013-07-30 15:53:00
12:53 PM,73.9,60.1,62,30.21,10.0,NNW,6.9,-,N/A,,Clear,340,2013-07-30 16:53:00
1:53 PM,73.9,59.0,59,30.20,10.0,North,9.2,-,N/A,,Clear,350,2013-07-30 17:53:00
2:53 PM,73.9,60.1,62,30.20,10.0,NNW,6.9,-,N/A,,Clear,340,2013-07-30 18:53:00
3:53 PM,73.9,59.0,59,30.19,10.0,NNW,4.6,-,N/A,,Clear,340,2013-07-30 19:53:00
4:53 PM,73.0,59.0,61,30.18,10.0,NNW,4.6,-,N/A,,Clear,340,2013-07-30 20:53:00
5:53 PM,73.0,59.0,61,30.17,10.0,North,4.6,-,N/A,,Clear,360,2013-07-30 21:53:00
6:53 PM,72.0,59.0,64,30.17,10.0,Calm,Calm,-,N/A,,Clear,0,2013-07-30 22:53:00
7:53 PM,69.1,60.1,73,30.16,10.0,North,3.5,-,N/A,,Clear,10,2013-07-30 23:53:00
8:53 PM,68.0,57.9,70,30.15,10.0,NNE,3.5,-,N/A,,Clear,30,2013-07-31 00:53:00
9:53 PM,68.0,57.9,70,30.15,10.0,Calm,Calm,-,N/A,,Clear,0,2013-07-31 01:53:00
10:53 PM,69.1,57.9,68,30.15,10.0,Calm,Calm,-,N/A,,Clear,0,2013-07-31 02:53:00
11:53 PM,66.9,57.9,73,30.14,10.0,SE,3.5,-,N/A,,Clear,140,2013-07-31 03:53:00